Location: Düngen
(52.0952°N, 10.0219°E)
Time: 19:28:08
(UTC+00:00)

Lacrosse 4 Rocket - Pass Details

Date: 11 March 2026
Orbit: 508 x 566 km, 68.0° (Epoch: 20 April)

Event Time Altitude Azimuth Distance (km) Brightness Sun altitude
Rises 18:15:53 0° 269° (W) 2,619 6.9 -9.8°
Reaches altitude 10° 18:18:46 10° 293° (WNW) 1,742 5.3 -10.2°
Maximum altitude 18:21:10 16° 331° (NNW) 1,433 3.9 -10.6°
Drops below altitude 10° 18:23:34 10° 9° (N) 1,761 3.9 -11.0°
Sets 18:26:31 0° 33° (NNE) 2,664 4.6 -11.4°
